K6PKL-2 Weather Reports


Display with metric or nautical units.
time (UTC)temp
F
wind
direction
speed
MPH
gust
MPH
rain 1hr
in
rain 24hr
in
rain mn
in
humidity
%
barometer
mb
20260902014847 80 238 6.0 7.0 0.00 0.00 0.00 42 1019.5
20260902014447 80 229 7.0 7.0 0.00 0.00 0.00 42 1019.4
20260902014047 80 232 6.0 9.0 0.00 0.00 0.00 42 1019.2
20260902013647 80 287 3.0 7.0 0.00 0.00 0.00 42 1019.2
20260902012844 80 186 4.0 7.0 0.00 0.00 0.00 42 1019.2
20260902012443 80 213 2.0 7.0 0.00 0.00 0.00 43 1019.1
20260902012043 80 324 4.0 7.0 0.00 0.00 0.00 43 1019.2
20260902011243 80 221 4.0 9.0 0.00 0.00 0.00 43 1019.1
20260902010843 80 292 4.0 8.0 0.00 0.00 0.00 43 1019.0
20260902010443 80 315 5.0 12.0 0.00 0.00 0.00 44 1019.0
20260902010043 80 310 3.0 7.0 0.00 0.00 0.00 44 1019.0
20260902005642 80 355 5.0 6.0 0.00 0.00 0.00 43 1019.0
20260902005242 80 220 8.0 10.0 0.00 0.00 0.00 42 1018.9
20260902004842 80 308 5.0 17.0 0.00 0.00 0.00 42 1018.8
20260902004442 80 317 4.0 5.0 0.00 0.00 0.00 43 1018.7
20260902004042 80 265 6.0 11.0 0.00 0.00 0.00 43 1018.8
20260902003242 80 265 2.0 8.0 0.00 0.00 0.00 43 1018.9
20260902002441 79 225 6.0 7.0 0.00 0.00 0.00 42 1019.0
20260902002041 79 194 2.0 7.0 0.00 0.00 0.00 42 1018.8
20260902001641 79 333 3.0 3.0 0.00 0.00 0.00 43 1018.9
20260902001241 79 335 2.0 6.0 0.00 0.00 0.00 43 1018.9
20260902000841 79 335 5.0 6.0 0.00 0.00 0.00 43 1018.8
20260902000441 79 207 3.0 6.0 0.00 0.00 0.00 44 1018.8
20260902000040 79 270 0.0 8.0 0.00 0.00 0.00 44 1018.9
20260901235640 79 195 3.0 6.0 0.00 0.00 0.00 43 1019.0
20260901235240 79 2 3.0 4.0 0.00 0.00 0.00 43 1018.9
20260901234840 79 193 3.0 7.0 0.00 0.00 0.00 44 1019.0
20260901234440 79 341 2.0 6.0 0.00 0.00 0.00 44 1019.0
20260901234040 79 292 3.0 6.0 0.00 0.00 0.00 44 1019.0
20260901233640 79 312 2.0 7.0 0.00 0.00 0.00 44 1019.1
20260901233241 79 185 1.0 6.0 0.00 0.00 0.00 44 1019.1
20260901232839 79 270 1.0 6.0 0.00 0.00 0.00 44 1019.2
20260901232439 79 195 7.0 8.0 0.00 0.00 0.00 44 1019.3
20260901232039 79 317 2.0 6.0 0.00 0.00 0.00 45 1019.2
20260901231639 78 238 1.0 6.0 0.00 0.00 0.00 45 1019.2
20260901231239 78 22 2.0 7.0 0.00 0.00 0.00 45 1019.2
20260901230839 78 335 3.0 4.0 0.00 0.00 0.00 45 1019.2
20260901230439 78 263 4.0 7.0 0.00 0.00 0.00 45 1019.3
20260901225638 78 22 2.0 6.0 0.00 0.00 0.00 46 1019.4
20260901225238 78 187 1.0 7.0 0.00 0.00 0.00 46 1019.4
20260901224838 78 348 5.0 8.0 0.00 0.00 0.00 46 1019.3
20260901224439 77 315 3.0 7.0 0.00 0.00 0.00 45 1019.5
20260901224038 77 197 4.0 7.0 0.00 0.00 0.00 46 1019.4
20260901223638 77 225 1.0 8.0 0.00 0.00 0.00 47 1019.5
20260901223237 77 346 4.0 6.0 0.00 0.00 0.00 46 1019.5
20260901222837 77 257 4.0 6.0 0.00 0.00 0.00 47 1019.6
20260901222437 77 257 3.0 7.0 0.00 0.00 0.00 46 1019.6
20260901222037 77 216 7.0 7.0 0.00 0.00 0.00 47 1019.6
20260901221637 77 319 2.0 7.0 0.00 0.00 0.00 47 1019.6
20260901221237 77 299 1.0 8.0 0.00 0.00 0.00 47 1019.7
20260901220437 77 243 4.0 7.0 0.00 0.00 0.00 47 1019.8
20260901220036 77 315 4.0 9.0 0.00 0.00 0.00 47 1019.7
20260901215637 78 220 6.0 8.0 0.00 0.00 0.00 47 1019.7
20260901215236 78 211 7.0 8.0 0.00 0.00 0.00 47 1019.8
20260901214836 78 200 3.0 4.0 0.00 0.00 0.00 47 1019.9
20260901214436 78 18 4.0 4.0 0.00 0.00 0.00 47 1019.8
20260901214036 78 225 2.0 11.0 0.00 0.00 0.00 47 1019.7
20260901213635 78 263 3.0 6.0 0.00 0.00 0.00 47 1019.8
20260901213235 77 238 2.0 4.0 0.00 0.00 0.00 48 1019.8
20260901212835 77 180 1.0 2.0 0.00 0.00 0.00 48 1019.8
20260901212032 77 234 6.0 6.0 0.00 0.00 0.00 49 1019.8
20260901211632 77 240 4.0 10.0 0.00 0.00 0.00 48 1019.9
20260901211232 77 231 3.0 7.0 0.00 0.00 0.00 49 1019.9
20260901210831 76 324 5.0 6.0 0.00 0.00 0.00 48 1019.9
20260901210432 76 335 2.0 5.0 0.00 0.00 0.00 50 1019.9
20260901210031 76 213 4.0 8.0 0.00 0.00 0.00 49 1020.0
20260901205631 76 230 4.0 8.0 0.00 0.00 0.00 50 1020.0
20260901205231 76 193 0.0 6.0 0.00 0.00 0.00 51 1020.0
20260901204831 76 213 2.0 6.0 0.00 0.00 0.00 50 1020.1
20260901204431 75 200 6.0 8.0 0.00 0.00 0.00 51 1020.1
20260901203630 75 236 4.0 6.0 0.00 0.00 0.00 53 1020.2
20260901203230 75 210 5.0 7.0 0.00 0.00 0.00 54 1020.2
20260901202830 74 270 1.0 5.0 0.00 0.00 0.00 55 1020.2
20260901202430 74 215 0.0 5.0 0.00 0.00 0.00 54 1020.3
20260901202030 74 225 0.0 4.0 0.00 0.00 0.00 55 1020.3
20260901201630 74 135 2.0 3.0 0.00 0.00 0.00 55 1020.4
20260901201230 73 60 0.0 1.0 0.00 0.00 0.00 55 1020.4
20260901200830 73 243 1.0 3.0 0.00 0.00 0.00 54 1020.4
20260901200429 73 45 2.0 4.0 0.00 0.00 0.00 55 1020.5
20260901200029 73 225 0.0 5.0 0.00 0.00 0.00 54 1020.5
20260901195629 72 225 3.0 5.0 0.00 0.00 0.00 54 1020.6
20260901195229 72 292 1.0 8.0 0.00 0.00 0.00 54 1020.6
20260901194829 72 301 2.0 9.0 0.00 0.00 0.00 54 1020.6
20260901194429 72 211 3.0 7.0 0.00 0.00 0.00 55 1020.6
20260901194028 72 258 3.0 5.0 0.00 0.00 0.00 55 1020.5
20260901193628 72 292 3.0 5.0 0.00 0.00 0.00 55 1020.6
20260901193228 71 270 2.0 4.0 0.00 0.00 0.00 56 1020.7
20260901192828 71 315 2.0 3.0 0.00 0.00 0.00 57 1020.9
20260901192428 71 0 1.0 6.0 0.00 0.00 0.00 58 1020.9
20260901191628 71 270 2.0 12.0 0.00 0.00 0.00 58 1021.0
20260901191227 70 240 1.0 5.0 0.00 0.00 0.00 60 1020.9
20260901190827 70 315 2.0 3.0 0.00 0.00 0.00 61 1021.0
20260901190427 70 270 0.0 6.0 0.00 0.00 0.00 61 1021.0
20260901190027 70 225 1.0 6.0 0.00 0.00 0.00 61 1021.1
20260901185628 70 238 1.0 8.0 0.00 0.00 0.00 60 1021.1
20260901184827 69 270 2.0 7.0 0.00 0.00 0.00 62 1021.2
20260901184427 69 317 4.0 5.0 0.00 0.00 0.00 62 1021.2
20260901184027 69 215 3.0 6.0 0.00 0.00 0.00 62 1021.2
20260901183626 68 2 2.0 5.0 0.00 0.00 0.00 63 1021.2
20260901183227 68 202 4.0 8.0 0.00 0.00 0.00 64 1021.2
20260901182826 68 225 1.0 5.0 0.00 0.00 0.00 64 1021.2
20260901182427 67 301 0.0 3.0 0.00 0.00 0.00 65 1021.2
20260901182026 67 225 1.0 5.0 0.00 0.00 0.00 66 1021.1
20260901181625 67 270 1.0 4.0 0.00 0.00 0.00 66 1021.2
20260901181225 67 180 0.0 2.0 0.00 0.00 0.00 66 1021.3
20260901180825 66 193 2.0 6.0 0.00 0.00 0.00 67 1021.3
20260901180025 66 234 2.0 8.0 0.00 0.00 0.00 68 1021.4
20260901175625 66 270 1.0 6.0 0.00 0.00 0.00 68 1021.4
20260901175225 65 216 2.0 6.0 0.00 0.00 0.00 68 1021.3
20260901174824 65 193 2.0 4.0 0.00 0.00 0.00 68 1021.3
20260901174424 65 270 2.0 3.0 0.00 0.00 0.00 69 1021.3
20260901173624 65 225 0.0 2.0 0.00 0.00 0.00 70 1021.2
20260901173224 64 225 2.0 4.0 0.00 0.00 0.00 70 1021.2
20260901172824 64 238 0.0 5.0 0.00 0.00 0.00 70 1021.2
20260901172424 64 195 1.0 4.0 0.00 0.00 0.00 70 1021.2
20260901172023 64 292 1.0 2.0 0.00 0.00 0.00 70 1021.2
20260901171623 64 202 4.0 5.0 0.00 0.00 0.00 70 1021.2
20260901171223 63 199 2.0 3.0 0.00 0.00 0.00 71 1021.2
20260901170823 63 102 0.0 3.0 0.00 0.00 0.00 71 1021.2
20260901170423 63 225 0.0 3.0 0.00 0.00 0.00 71 1021.3
20260901170023 63 270 0.0 2.0 0.00 0.00 0.00 72 1021.2
20260901165623 63 231 2.0 3.0 0.00 0.00 0.00 72 1021.3
20260901165222 62 270 2.0 3.0 0.00 0.00 0.00 73 1021.3
20260901164822 62 265 1.0 4.0 0.00 0.00 0.00 73 1021.2
20260901164422 62 270 2.0 3.0 0.00 0.00 0.00 73 1021.2
20260901164022 62 209 1.0 3.0 0.00 0.00 0.00 73 1021.2
20260901163622 62 292 0.0 2.0 0.00 0.00 0.00 73 1021.1
20260901163222 62 45 2.0 2.0 0.00 0.00 0.00 73 1021.2
20260901162822 62 45 0.0 2.0 0.00 0.00 0.00 74 1021.2
20260901162421 61 270 0.0 3.0 0.00 0.00 0.00 74 1021.0
20260901162021 61 225 1.0 1.0 0.00 0.00 0.00 74 1020.9
20260901161621 61 225 1.0 3.0 0.00 0.00 0.00 74 1020.9
20260901161221 61 315 0.0 3.0 0.00 0.00 0.00 74 1020.8
20260901160822 61 90 0.0 2.0 0.00 0.00 0.00 74 1020.9
20260901160421 61 315 0.0 1.0 0.00 0.00 0.00 74 1021.0
20260901160021 61 225 1.0 3.0 0.00 0.00 0.00 73 1020.8
20260901155620 60 270 0.0 0.0 0.00 0.00 0.00 74 1020.9
20260901155220 60 315 0.0 2.0 0.00 0.00 0.00 74 1020.8
20260901154420 60 315 1.0 1.0 0.00 0.00 0.00 73 1020.6
20260901153620 60 225 0.0 1.0 0.00 0.00 0.00 73 1020.7
20260901153220 60 0 0.0 1.0 0.00 0.00 0.00 73 1020.7
20260901152819 60 90 0.0 0.0 0.00 0.00 0.00 73 1020.6
20260901152419 60 270 0.0 1.0 0.00 0.00 0.00 73 1020.6
20260901151217 59 270 0.0 1.0 0.00 0.00 0.00 73 1020.5
20260901150816 59 45 0.0 2.0 0.00 0.00 0.00 73 1020.4
20260901150416 59 63 2.0 2.0 0.00 0.00 0.00 73 1020.4
20260901150015 59 90 0.0 2.0 0.00 0.00 0.00 73 1020.3
20260901145615 59 0 0.0 0.0 0.00 0.00 0.00 73 1020.2
20260901145215 59 135 0.0 2.0 0.00 0.00 0.00 73 1020.1
20260901144815 59 83 2.0 2.0 0.00 0.00 0.00 73 1020.1
20260901144415 59 90 0.0 2.0 0.00 0.00 0.00 73 1020.0
20260901144015 58 135 0.0 2.0 0.00 0.00 0.00 73 1020.1
20260901143615 58 90 0.0 1.0 0.00 0.00 0.00 73 1020.0
20260901143214 58 135 0.0 2.0 0.00 0.00 0.00 73 1019.9
20260901142814 58 87 0.0 0.0 0.00 0.00 0.00 73 1019.9
20260901142414 58 315 0.0 0.0 0.00 0.00 0.00 73 1019.8
20260901142014 58 315 0.0 0.0 0.00 0.00 0.00 73 1019.9
20260901141614 58 315 0.0 0.0 0.00 0.00 0.00 73 1019.8
20260901141214 58 315 0.0 0.0 0.00 0.00 0.00 73 1019.7
20260901140814 58 135 0.0 0.0 0.00 0.00 0.00 73 1019.7
20260901140013 58 135 0.0 0.0 0.00 0.00 0.00 73 1019.6
20260901135613 58 135 0.0 0.0 0.00 0.00 0.00 73 1019.5
20260901135213 58 135 0.0 1.0 0.00 0.00 0.00 72 1019.4
20260901134814 58 90 0.0 0.0 0.00 0.00 0.00 73 1019.4
20260901134413 58 90 0.0 0.0 0.00 0.00 0.00 73 1019.3
20260901134013 58 90 0.0 0.0 0.00 0.00 0.00 73 1019.2
20260901133613 59 90 0.0 0.0 0.00 0.00 0.00 73 1019.1
20260901132412 59 90 0.0 0.0 0.00 0.00 0.00 73 1019.1
20260901132013 59 90 0.0 0.0 0.00 0.00 0.00 73 1019.1
20260901131212 59 218 0.0 0.0 0.00 0.00 0.00 73 1019.1
20260901130411 59 225 0.0 0.0 0.00 0.00 0.00 73 1019.1
20260901130011 59 225 0.0 2.0 0.00 0.00 0.00 74 1019.0
20260901125611 59 90 0.0 0.0 0.00 0.00 0.00 74 1018.9
20260901125211 59 225 0.0 0.0 0.00 0.00 0.00 74 1019.0
20260901124411 59 225 0.0 0.0 0.00 0.00 0.00 74 1018.8
20260901124011 59 225 0.0 1.0 0.00 0.00 0.00 74 1018.7
20260901123210 59 225 1.0 2.0 0.00 0.00 0.00 75 1018.7
20260901122810 59 225 1.0 2.0 0.00 0.00 0.00 75 1018.7
20260901122410 59 225 1.0 3.0 0.00 0.00 0.00 75 1018.6
20260901122010 59 225 1.0 3.0 0.00 0.00 0.00 74 1018.8
20260901121610 59 180 1.0 2.0 0.00 0.00 0.00 74 1018.8
20260901120810 59 270 1.0 2.0 0.00 0.00 0.00 74 1018.8
20260901120410 59 270 0.0 0.0 0.00 0.00 0.00 74 1018.8
20260901115610 59 270 0.0 0.0 0.00 0.00 0.00 74 1018.8
20260901114809 59 270 0.0 0.0 0.00 0.00 0.00 74 1018.8
20260901114409 59 270 0.0 0.0 0.00 0.00 0.00 74 1018.8
20260901114009 59 270 0.0 0.0 0.00 0.00 0.00 74 1018.7
20260901113208 60 270 0.0 0.0 0.00 0.00 0.00 75 1018.5
20260901112809 60 270 0.0 1.0 0.00 0.00 0.00 75 1018.5
20260901112409 60 270 0.0 2.0 0.00 0.00 0.00 75 1018.5
20260901111608 60 270 0.0 2.0 0.00 0.00 0.00 75 1018.5
20260901110807 60 315 1.0 2.0 0.00 0.00 0.00 75 1018.4
20260901110408 60 288 1.0 2.0 0.00 0.00 0.00 75 1018.3
20260901110008 60 0 0.0 3.0 0.00 0.00 0.00 75 1018.3
20260901105608 60 347 1.0 3.0 0.00 0.00 0.00 75 1018.2
20260901104807 60 319 3.0 4.0 0.00 0.00 0.00 75 1018.2
20260901104407 60 297 3.0 5.0 0.00 0.00 0.00 75 1018.2
20260901104006 60 4 3.0 4.0 0.00 0.00 0.00 75 1018.1
20260901103607 60 339 3.0 4.0 0.00 0.00 0.00 75 1018.1
20260901103206 60 353 2.0 5.0 0.00 0.00 0.00 75 1018.1
20260901102806 60 303 4.0 4.0 0.00 0.00 0.00 75 1018.0
20260901102406 60 2 1.0 3.0 0.00 0.00 0.00 75 1018.1
20260901102006 60 339 2.0 4.0 0.00 0.00 0.00 75 1018.1
20260901101605 60 357 1.0 3.0 0.00 0.00 0.00 75 1018.1
20260901101206 60 346 2.0 4.0 0.00 0.00 0.00 75 1018.1
20260901100806 60 4 2.0 3.0 0.00 0.00 0.00 75 1018.2
20260901100056 60 0 2.0 3.0 0.00 0.00 0.00 75 1018.2
20260901100005 60 0 2.0 3.0 0.00 0.00 0.00 75 1018.2
20260901095605 60 0 2.0 4.0 0.00 0.00 0.00 75 1018.2
20260901095205 60 27 3.0 3.0 0.00 0.00 0.00 75 1018.2
20260901094805 60 321 2.0 4.0 0.00 0.00 0.00 74 1018.2
20260901094404 60 330 3.0 4.0 0.00 0.00 0.00 75 1018.2
20260901094004 60 0 2.0 3.0 0.00 0.00 0.00 75 1018.1
20260901093604 60 337 1.0 4.0 0.00 0.00 0.00 74 1018.1
20260901093204 60 355 3.0 3.0 0.00 0.00 0.00 74 1018.0
20260901092804 60 333 2.0 3.0 0.00 0.00 0.00 74 1018.0
20260901092404 60 29 2.0 4.0 0.00 0.00 0.00 74 1018.1
20260901092004 61 0 3.0 3.0 0.00 0.00 0.00 74 1018.1
20260901091604 61 344 3.0 4.0 0.00 0.00 0.00 74 1018.2
20260901091204 61 355 2.0 4.0 0.00 0.00 0.00 74 1018.1
20260901090803 61 337 2.0 4.0 0.00 0.00 0.00 74 1018.0
20260901090403 61 13 1.0 4.0 0.00 0.00 0.00 73 1018.1
20260901090003 61 326 4.0 4.0 0.00 0.00 0.00 74 1018.0
20260901085603 61 0 2.0 4.0 0.00 0.00 0.00 73 1018.0
20260901085203 61 0 3.0 4.0 0.00 0.00 0.00 73 1018.0
20260901084802 61 13 3.0 3.0 0.00 0.00 0.00 73 1018.1
20260901084402 61 357 2.0 5.0 0.00 0.00 0.00 73 1018.1
20260901084002 61 346 2.0 3.0 0.00 0.00 0.00 73 1018.0
20260901083603 61 0 3.0 5.0 0.00 0.00 0.00 74 1018.1
20260901083202 61 330 3.0 4.0 0.00 0.00 0.00 73 1018.1
20260901082802 62 182 2.0 7.0 0.00 0.00 0.00 73 1018.1
20260901082402 62 333 4.0 4.0 0.00 0.00 0.00 73 1018.1
20260901082001 62 310 2.0 5.0 0.00 0.00 0.00 73 1018.2
20260901081601 62 353 5.0 5.0 0.00 0.00 0.00 73 1018.1
20260901081201 62 315 2.0 5.0 0.00 0.00 0.00 73 1018.1
20260901080801 62 335 5.0 5.0 0.00 0.00 0.00 73 1018.1
20260901080401 62 335 3.0 4.0 0.00 0.00 0.00 73 1018.1
20260901080001 62 299 1.0 6.0 0.00 0.00 0.00 73 1018.2
20260901075601 62 355 2.0 5.0 0.00 0.00 0.00 73 1018.1
20260901075200 62 326 2.0 3.0 0.00 0.00 0.00 73 1018.2
20260901074800 62 0 1.0 4.0 0.00 0.00 0.00 72 1018.1
20260901074400 62 321 2.0 4.0 0.00 0.00 0.00 73 1018.1
20260901074000 62 247 2.0 6.0 0.00 0.00 0.00 73 1018.1
20260901073601 62 51 3.0 6.0 0.00 0.00 0.00 73 1018.0
20260901073200 62 148 2.0 6.0 0.00 0.00 0.00 73 1018.1
20260901072800 62 317 2.0 9.0 0.00 0.00 0.00 73 1018.0
20260901071959 62 186 3.0 4.0 0.00 0.00 0.00 73 1018.0
20260901071559 62 263 3.0 5.0 0.00 0.00 0.00 73 1018.1
20260901071200 62 319 4.0 6.0 0.00 0.00 0.00 73 1018.0
20260901070800 62 281 2.0 7.0 0.00 0.00 0.00 73 1018.0
20260901070359 62 235 7.0 7.0 0.00 0.00 0.00 72 1018.0
20260901065959 62 315 4.0 9.0 0.00 0.00 0.00 72 1018.0
20260901065600 62 292 4.0 7.0 0.00 0.00 0.00 72 1017.9
20260901065158 62 294 2.0 8.0 0.00 0.00 0.00 72 1018.2
20260901064758 62 315 4.0 7.0 0.00 0.00 0.00 72 1018.1
20260901064358 62 328 2.0 6.0 0.00 0.00 0.00 72 1018.0
20260901063959 62 270 4.0 8.0 0.00 0.00 0.00 72 1018.1
20260901063558 62 18 3.0 6.0 0.00 0.00 0.00 72 1018.1
20260901063158 62 202 4.0 6.0 0.00 0.00 0.00 71 1018.0
20260901062758 63 328 4.0 7.0 0.00 0.00 0.00 72 1017.9
20260901062357 63 335 6.0 9.0 0.00 0.00 0.00 71 1018.1
20260901061958 63 245 5.0 5.0 0.00 0.00 0.00 71 1018.0
20260901061558 63 351 3.0 6.0 0.00 0.00 0.00 71 1018.1
20260901061157 63 339 3.0 8.0 0.00 0.00 0.00 71 1018.1
20260901060757 63 355 5.0 6.0 0.00 0.00 0.00 71 1018.0
20260901060357 63 238 5.0 5.0 0.00 0.00 0.00 71 1018.0
20260901055957 63 227 1.0 7.0 0.00 0.00 0.00 71 1018.0
20260901055557 63 342 3.0 10.0 0.00 0.00 0.00 71 1017.9
20260901055157 63 346 6.0 6.0 0.00 0.00 0.00 70 1017.9
20260901054828 63 274 2.0 6.0 0.00 0.00 0.00 70 1017.9
20260901054757 63 274 2.0 6.0 0.00 0.00 0.00 70 1017.9
20260901054356 63 297 4.0 6.0 0.00 0.00 0.00 70 1018.0
20260901053956 63 317 6.0 7.0 0.00 0.00 0.00 70 1017.9
20260901053556 63 0 2.0 6.0 0.00 0.00 0.00 69 1017.9
20260901053156 63 258 3.0 6.0 0.00 0.00 0.00 70 1017.9
20260901052756 63 270 1.0 6.0 0.00 0.00 0.00 69 1017.8
20260901052356 63 317 6.0 6.0 0.00 0.00 0.00 69 1017.9
20260901051956 64 301 2.0 9.0 0.00 0.00 0.00 69 1017.8
20260901051155 64 283 4.0 8.0 0.00 0.00 0.00 69 1017.6
20260901050755 64 215 6.0 7.0 0.00 0.00 0.00 68 1017.7
20260901050355 64 324 4.0 8.0 0.00 0.00 0.00 68 1017.5
20260901045955 64 238 3.0 8.0 0.00 0.00 0.00 68 1017.5
20260901045554 64 346 6.0 6.0 0.00 0.00 0.00 68 1017.6
20260901045154 64 306 5.0 7.0 0.00 0.00 0.00 67 1017.7
20260901044755 64 281 4.0 6.0 0.00 0.00 0.00 68 1017.6
20260901044355 65 315 2.0 7.0 0.00 0.00 0.00 67 1017.5
20260901043954 65 290 2.0 10.0 0.00 0.00 0.00 67 1017.4
20260901043153 65 220 5.0 9.0 0.00 0.00 0.00 67 1017.3
20260901042753 65 270 2.0 9.0 0.00 0.00 0.00 67 1017.4
20260901042354 65 227 3.0 7.0 0.00 0.00 0.00 67 1017.4
20260901041954 65 295 2.0 7.0 0.00 0.00 0.00 66 1017.4
20260901041553 66 290 4.0 9.0 0.00 0.00 0.00 66 1017.3
20260901041154 66 309 5.0 7.0 0.00 0.00 0.00 66 1017.3
20260901040755 66 236 5.0 7.0 0.00 0.00 0.00 66 1017.3
20260901040352 66 289 7.0 9.0 0.00 0.00 0.00 65 1017.3
20260901035953 66 262 4.0 7.0 0.00 0.00 0.00 65 1017.2
20260901035553 67 272 1.0 7.0 0.00 0.00 0.00 64 1017.2
20260901035153 67 301 4.0 7.0 0.00 0.00 0.00 64 1017.1
20260901034349 67 274 5.0 6.0 0.00 0.00 0.00 63 1017.0
20260901033949 67 261 3.0 11.0 0.00 0.00 0.00 63 1016.9
20260901033549 68 315 4.0 9.0 0.00 0.00 0.00 63 1017.0
20260901032749 68 327 3.0 7.0 0.00 0.00 0.00 62 1016.7
20260901032349 69 285 6.0 7.0 0.00 0.00 0.00 62 1016.7
20260901031148 69 342 9.0 9.0 0.00 0.00 0.00 59 1016.5
20260901030748 70 301 4.0 7.0 0.00 0.00 0.00 59 1016.5
20260901030347 70 274 4.0 9.0 0.00 0.00 0.00 59 1016.5
20260901025947 70 289 5.0 8.0 0.00 0.00 0.00 58 1016.2
20260901025148 71 236 9.0 10.0 0.00 0.00 0.00 58 1016.3
20260901024747 72 11 4.0 8.0 0.00 0.00 0.00 57 1016.3
20260901024347 72 315 3.0 7.0 0.00 0.00 0.00 56 1016.2
20260901023947 72 292 4.0 12.0 0.00 0.00 0.00 55 1016.1
20260901023546 73 240 6.0 8.0 0.00 0.00 0.00 55 1016.2
20260901023147 73 270 3.0 8.0 0.00 0.00 0.00 55 1016.3
20260901022746 74 9 4.0 10.0 0.00 0.00 0.00 54 1016.2
20260901022347 74 216 3.0 8.0 0.00 0.00 0.00 54 1016.0
20260901021546 75 321 7.0 9.0 0.00 0.00 0.00 53 1016.1
20260901020745 76 211 5.0 6.0 0.00 0.00 0.00 51 1016.1
20260901020345 77 257 4.0 9.0 0.00 0.00 0.00 51 1016.1
20260901015946 78 227 7.0 10.0 0.00 0.00 0.00 50 1016.1
20260901015545 79 270 7.0 11.0 0.00 0.00 0.00 48 1016.0
20260901015145 79 182 3.0 10.0 0.00 0.00 0.00 49 1016.0